Location: Grand Rapids
(42.9630°N, 85.6680°W)
Time: 03:36:35
(UTC-04:00)

A-11 Canister half - Pass Details

Date: 06 June 2024
Orbit: 1524 x 1684 km, 47.3° (Epoch: 21 June)

Event Time Altitude Azimuth Distance (km) Brightness Sun altitude
Rises 21:19:48 0° 272° (W) 4,672 12.7 -0.9°
Reaches altitude 10° 21:22:52 10° 275° (W) 3,693 12.2 -1.4°
Maximum altitude 21:32:09 68° 359° (N) 1,643 9.4 -2.8°
Drops below altitude 10° 21:41:39 10° 82° (E) 3,777 10.6 -4.2°
Sets 21:44:49 0° 85° (E) 4,782 11.1 -4.7°
